FW6237 Weather Reports


Display with metric or nautical units.
time (UTC)temp
F
wind
direction
speed
MPH
gust
MPH
rain 1hr
in
rain 24hr
in
rain mn
in
humidity
%
barometer
mb
20260505060051 40 282 1.0 12.0 0.00 0.48 0.00 89 1006.2
20260505054548 39 298 1.0 8.0 0.00 0.51 0.00 89 1006.0
20260505053046 40 0 1.0 8.0 0.00 0.51 0.00 89 1005.6
20260505051606 41 315 1.0 8.0 0.00 0.51 0.00 88 1005.4
20260505041548 42 0 3.0 10.0 0.00 0.53 0.00 88 1004.4
20260505040046 43 279 4.0 13.0 0.00 0.53 0.00 88 1004.2
20260505034541 43 0 3.0 11.0 0.00 0.55 0.00 88 1004.0
20260505033046 43 279 2.0 11.0 0.01 0.55 0.00 88 1003.8
20260505031550 43 245 2.0 6.0 0.01 0.55 0.00 88 1003.7
20260505030045 44 275 2.0 9.0 0.01 0.55 0.00 87 1003.4
20260505024547 45 295 3.0 11.0 0.00 0.57 0.54 87 1003.6
20260505023041 45 0 3.0 10.0 0.00 0.56 0.53 86 1003.2
20260505021552 45 241 4.0 10.0 0.00 0.56 0.53 84 1003.2
20260505020045 45 283 3.0 14.0 0.00 0.56 0.53 84 1003.1
20260505014544 43 308 2.0 9.0 0.00 0.65 0.53 83 1002.6
20260505013042 44 283 2.0 9.0 0.00 0.65 0.53 81 1002.6
20260505011541 44 306 2.0 10.0 0.00 0.65 0.53 81 1002.6
20260505010048 43 260 4.0 12.0 0.00 0.65 0.53 82 1002.6
20260505004544 43 322 2.0 7.0 0.00 0.76 0.53 81 1002.4
20260505003042 44 317 2.0 8.0 0.00 0.76 0.53 78 1002.3
20260505001545 43 304 3.0 9.0 0.00 0.76 0.53 80 1002.1
20260505000047 39 0 2.0 4.0 0.00 0.76 0.53 87 1002.2
20260504234540 39 298 1.0 6.0 0.00 0.87 0.53 86 1001.7
20260504233103 41 306 1.0 5.0 0.00 0.87 0.53 83 1001.4
20260504231546 43 259 2.0 9.0 0.00 0.87 0.53 78 1001.1
20260504230053 45 222 2.0 9.0 0.00 0.87 0.53 74 1001.0
20260504224544 45 283 1.0 13.0 0.00 0.99 0.53 75 1000.7
20260504223041 46 270 1.0 6.0 0.00 0.99 0.53 72 1000.6
20260504221544 49 208 2.0 13.0 0.00 0.99 0.53 66 1000.5
20260504220045 50 221 3.0 13.0 0.00 0.99 0.53 60 1000.3
20260504214545 51 219 7.0 15.0 0.00 1.11 0.53 59 1000.0
20260504213045 51 197 5.0 17.0 0.00 1.11 0.53 61 1000.0
20260504211541 50 235 5.0 16.0 0.00 1.11 0.53 64 1000.1
20260504210105 49 285 2.0 11.0 0.00 1.11 0.53 69 1000.0
20260504204548 49 251 2.0 16.0 0.00 1.12 0.53 70 999.7
20260504203101 50 270 6.0 16.0 0.00 1.12 0.53 69 999.5
20260504201546 50 231 6.0 17.0 0.00 1.12 0.53 69 999.2
20260504200042 50 306 4.0 15.0 0.00 1.12 0.53 73 998.9
20260504194540 49 285 6.0 13.0 0.00 1.20 0.53 75 998.5
20260504193046 48 295 5.0 11.0 0.00 1.20 0.53 79 998.3
20260504191542 47 325 4.0 17.0 0.00 1.20 0.53 81 998.1
20260504190106 47 310 5.0 17.0 0.00 1.20 0.53 82 998.0
20260504184545 46 246 3.0 14.0 0.00 1.20 0.53 84 997.9
20260504183048 45 231 5.0 12.0 0.00 1.20 0.53 86 997.8
20260504181550 44 260 6.0 15.0 0.01 1.20 0.53 87 997.4
20260504180045 44 225 5.0 14.0 0.02 1.20 0.53 86 997.1
20260504174546 44 237 5.0 13.0 0.02 1.19 0.52 88 996.8
20260504173042 43 320 3.0 14.0 0.03 1.19 0.52 88 996.5
20260504171542 43 257 3.0 18.0 0.03 1.18 0.51 88 996.1
20260504081545 36 314 1.0 6.0 0.01 0.77 0.10 93 976.0